Simultaneous Nadir Overpasses (SNOs) Predictions

Prediction of SNOs between AQUA and METOP-A Satellite Orbit:

Table of predicted SNOs for the next 14.0 days since TLE Epoch: 4/20/2018
Index Date (AQUA) Time (AQUA) Lat,Lon (AQUA) SZA (AQUA ) Date (METOP-A) Time (METOP-A) Lat,Lon (METOP-A) SZA (METOP-A ) Distance(km) Time Diff (sec)
1 04/23/2018 01:00:21 -74.28, -21.63 118.18 04/23/2018 00:59:11 -74.26, -21.69 118.18 2.58 70
2 04/23/2018 01:49:50 74.35, 145.84 61.90 04/23/2018 01:49:49 74.33, 145.82 61.88 2.45 1
3 04/23/2018 02:39:17 -74.43, -46.71 118.03 04/23/2018 02:40:29 -74.43, -46.59 118.05 3.53 72
4 04/25/2018 20:34:33 -74.29, 44.77 119.08 04/25/2018 20:33:27 -74.31, 44.86 119.06 3.20 66
5 04/25/2018 21:24:02 74.37,-147.76 60.99 04/25/2018 21:24:05 74.38,-147.64 61.00 3.81 3
6 04/25/2018 22:13:32 -74.60, 19.32 118.78 04/25/2018 22:14:43 -74.58, 20.21 118.83 26.41 71
7 04/28/2018 16:08:46 -74.32, 111.16 119.96 04/28/2018 16:07:45 -74.32, 111.27 119.95 3.30 61
8 04/28/2018 16:58:14 74.34, -81.25 60.06 04/28/2018 16:58:24 74.33, -81.36 60.05 3.38 10
9 04/28/2018 17:47:48 -74.78, 85.32 119.48 04/28/2018 17:48:57 -74.78, 87.14 119.55 53.16 69
10 05/01/2018 11:42:58 -74.30, 177.65 120.85 05/01/2018 11:42:03 -74.32, 177.68 120.82 2.07 55
11 05/01/2018 12:32:27 74.37, -14.88 59.23 05/01/2018 12:32:41 74.38, -14.83 59.23 1.76 14
12 05/01/2018 13:22:05 -75.01, 151.16 120.10 05/01/2018 13:23:11 -74.97, 154.08 120.23 84.08 66
13 05/04/2018 07:17:10 -74.34,-115.99 121.64 05/04/2018 07:16:20 -74.32,-115.92 121.65 3.15 50
14 05/04/2018 08:06:38 74.36, 51.60 58.38 05/04/2018 08:06:58 74.38, 51.57 58.40 2.28 20




NCC Satellite Simultaneous Nadir Overpasses (SNOs) Prediction Service
